Location: ???????
(55.4362°N, 38.1183°E)
Time: 20:18:53
(UTC+00:00)

M-CUBED/EXP-1 PRIME - Pass Details

Date: 09 December 2021
Orbit: 426 x 650 km, 101.7° (Epoch: 26 January)

Event Time Altitude Azimuth Distance (km) Brightness Sun altitude
Rises 15:12:38 0° 167° (SSE) 2,841 ? -17.7°
Reaches altitude 10° 15:14:46 10° 171° (S) 1,971 ? -17.9°
Maximum altitude 15:19:01 59° 252° (WSW) 735 ? -18.5°
Drops below altitude 10° 15:23:29 10° 332° (NNW) 2,064 ? -19.1°
Sets 15:25:46 0° 337° (NNW) 2,988 ? -19.5°
